Regional Weather Roundup
Issued by NWS

Home | Current Version | Previous Version | Text Only | Print | Product List | Glossary Off
Versions: 1 2 3 4 5 6 7 8 9 10 11 12 13 14 15 16 17 18 19 20 21 22 23 24 25 26 27 28 29 30 31 32 33 34 35 36 37 38 39 40 41 42 43 44 45 46 47 48 49 50

000
ASUS43 KFSD 041910
RWRSD

WEATHER ROUNDUP FOR SOUTH DAKOTA
NATIONAL WEATHER SERVICE SIOUX FALLS SD
200 PM CDT SAT JUL 04 2015

NOTE: "FAIR" INDICATES FEW OR NO CLOUDS BELOW 12,000 FEET WITH NO
SIGNIFICANT WEATHER AND/OR OBSTRUCTIONS TO VISIBILITY.


SDZ001>005-009-010-012>017-042000-
NORTHWEST AND NORTH CENTRAL SOUTH DAKOTA

CITY           SKY/WX    TMP DP  RH WIND       PRES   REMARKS
BUFFALO          N/A     88  62  41 W9        29.76S
FAITH            N/A     86  65  49 S16       29.80F
MOBRIDGE       SUNNY     87  69  54 S17       29.77F
$$

SDZ012>016-024>037-041>051-057-063-072>074-042000-
SOUTHWEST AND SOUTH CENTRAL SOUTH DAKOTA

CITY           SKY/WX    TMP DP  RH WIND       PRES   REMARKS
RAPID CTY ARPT SUNNY     88  64  44 NE5       29.84S
PIERRE         MOSUNNY   87  68  52 S20G25    29.78F
CUSTER         MOSUNNY   85  47  26 NW10G20   30.00S
ELLSWORTH AFB  SUNNY     87  62  44 NE5       29.84S
PHILIP         SUNNY     90  69  50 S9        29.78F
PINE RIDGE     SUNNY     87  65  47 S13       29.85F
SPEARFISH      FAIR      84  61  45 N7        29.90S
WINNER         FAIR      90  60  36 SE15G23   29.84F
$$

SDZ004>011-016>023-039-040-042000-
NORTHEAST SOUTH DAKOTA

CITY           SKY/WX    TMP DP  RH WIND       PRES   REMARKS
ABERDEEN       SUNNY     85  69  58 S13       29.82F
WATERTOWN      MOSUNNY   82  65  56 S14G22    29.89F
BROOKINGS      MOSUNNY   79  64  61 S15       29.93F
SISSETON         N/A     84  64  50 S12       29.85F
$$

SDZ017-020-022-023-036>040-048>070-042000-
SOUTHEAST SOUTH DAKOTA

CITY           SKY/WX    TMP DP  RH WIND       PRES   REMARKS
SIOUX FALLS    PTSUNNY   80  66  62 S10       29.93F
HURON          SUNNY     83  68  60 S15G22    29.84F
CHAMBERLAIN    MOSUNNY   83  68  60 SE15      29.85F
MITCHELL       MOSUNNY   84  66  54 S15       29.88F
YANKTON        PTSUNNY   81  64  57 S17       29.91S
$$

ABBREVIATIONS USED IN REMARKS
   TC - TEMPERATURE IN CELSIUS
  WCI - WIND CHILL INDEX
   HX - HEAT INDEX
  VSB - VISIBILITY




USA.gov is the U.S. government's official web portal to all federal, state and local government web resources and services.